Location: Clifton Park
(41.4873°N, 81.8024°W)
Time: 14:59:01
(UTC+00:00)

Cosmos 1825 Rocket - Pass Details

Date: 21 January 2020
Orbit: 604 x 631 km, 82.5° (Epoch: 21 February)

Event Time Altitude Azimuth Distance (km) Brightness Sun altitude
Exits shadow 11:43:54 - 334° (NNW) 2,232 6.0 -12.1°
Reaches altitude 10° 11:44:39 10° 330° (NNW) 1,961 5.7 -11.9°
Maximum altitude 11:48:23 29° 270° (W) 1,124 4.4 -11.3°
Drops below altitude 10° 11:52:07 10° 210° (SSW) 1,956 6.0 -10.6°
Sets 11:54:32 0° 199° (SSW) 2,859 7.0 -10.2°
